EN

Hourly Weather Cardiff

Today, 4 March, Thursday

Time Temperature Precipitation Wind Pressure Humidity
00:00 +7°C° 0 mm 2 mps 766 mmHg 97%
01:00 +7°C° 0 mm 2 mps 766 mmHg 97%
02:00 +7°C° 0 mm 2 mps 766 mmHg 96%
03:00 +7°C° 0 mm 2 mps 765 mmHg 96%
04:00 +6°C° 0 mm 2 mps 765 mmHg 95%
05:00 +5°C° 0 mm 3 mps 765 mmHg 95%
06:00 +4°C° 0 mm 3 mps 766 mmHg 97%
07:00 +4°C° 0 mm 3 mps 766 mmHg 94%
08:00 +5°C° 0 mm 3 mps 766 mmHg 92%
09:00 +5°C° 0 mm 4 mps 767 mmHg 90%
10:00 +5°C° 0 mm 4 mps 767 mmHg 87%
11:00 +6°C° 0 mm 4 mps 767 mmHg 84%
12:00 +6°C° 0 mm 4 mps 767 mmHg 81%
13:00 +6°C° 0 mm 4 mps 767 mmHg 80%
14:00 +6°C° 0 mm 4 mps 767 mmHg 79%
15:00 +6°C° 0 mm 4 mps 767 mmHg 77%
16:00 +5°C° 0 mm 4 mps 767 mmHg 77%
17:00 +5°C° 0 mm 4 mps 767 mmHg 77%
18:00 +4°C° 0 mm 4 mps 767 mmHg 77%
19:00 +4°C° 0 mm 4 mps 768 mmHg 77%
20:00 +4°C° 0 mm 4 mps 768 mmHg 77%
21:00 +4°C° 0 mm 3 mps 769 mmHg 77%
22:00 +4°C° 0 mm 4 mps 769 mmHg 80%
23:00 +2°C° 0 mm 5 mps 769 mmHg 84%

Tomorrow, 5 March, Friday

Time Temperature Precipitation Wind Pressure Humidity
00:00 +2°C° 0 mm 5 mps 770 mmHg 87%
01:00 +1°C° 0 mm 5 mps 770 mmHg 86%
02:00 0°C° 0 mm 5 mps 770 mmHg 86%
03:00 0°C° 0 mm 5 mps 770 mmHg 85%
04:00 -1°C° 0 mm 4 mps 770 mmHg 85%
05:00 -2°C° 0 mm 4 mps 770 mmHg 85%
06:00 -2°C° 0 mm 4 mps 771 mmHg 85%
07:00 -1°C° 0 mm 5 mps 771 mmHg 80%
08:00 0°C° 0 mm 5 mps 771 mmHg 75%
09:00 +1°C° 0 mm 6 mps 772 mmHg 70%
10:00 +2°C° 0 mm 6 mps 772 mmHg 67%
11:00 +3°C° 0 mm 6 mps 772 mmHg 65%
12:00 +3°C° 0 mm 5 mps 772 mmHg 63%
13:00 +5°C° 0 mm 5 mps 772 mmHg 63%
14:00 +5°C° 0 mm 5 mps 772 mmHg 63%
15:00 +5°C° 0 mm 5 mps 772 mmHg 63%
16:00 +3°C° 0 mm 5 mps 772 mmHg 67%
17:00 +3°C° 0 mm 4 mps 772 mmHg 71%
18:00 +1°C° 0 mm 4 mps 772 mmHg 75%
19:00 0°C° 0 mm 4 mps 773 mmHg 77%
20:00 -1°C° 0 mm 4 mps 773 mmHg 78%
21:00 0°C° 0 mm 3 mps 774 mmHg 80%
22:00 0°C° 0 mm 3 mps 774 mmHg 80%
23:00 -1°C° 0 mm 3 mps 774 mmHg 80%

Day after tomorrow, 6 March, Saturday

Time Temperature Precipitation Wind Pressure Humidity
00:00 -1°C° 0 mm 3 mps 774 mmHg 81%
01:00 -1°C° 0 mm 2 mps 774 mmHg 81%
02:00 -1°C° 0 mm 2 mps 773 mmHg 81%
03:00 -1°C° 0 mm 2 mps 773 mmHg 81%
04:00 -1°C° 0 mm 2 mps 773 mmHg 81%
05:00 -2°C° 0 mm 2 mps 773 mmHg 81%
06:00 -2°C° 0 mm 2 mps 773 mmHg 81%
07:00 +1°C° 0 mm 2 mps 773 mmHg 76%
08:00 +2°C° 0 mm 2 mps 773 mmHg 72%
09:00 +2°C° 0 mm 3 mps 773 mmHg 67%
10:00 +3°C° 0 mm 3 mps 773 mmHg 65%
11:00 +4°C° 0 mm 3 mps 773 mmHg 62%
12:00 +5°C° 0 mm 3 mps 773 mmHg 59%
13:00 +6°C° 0 mm 2 mps 773 mmHg 59%
14:00 +6°C° 0 mm 2 mps 772 mmHg 58%
15:00 +7°C° 0 mm 2 mps 772 mmHg 57%
16:00 +5°C° 0 mm 2 mps 772 mmHg 63%
17:00 +5°C° 0 mm 1 mps 772 mmHg 69%
18:00 +4°C° 0 mm 1 mps 771 mmHg 74%
19:00 +3°C° 0 mm 1 mps 771 mmHg 75%
20:00 +3°C° 0 mm 1 mps 772 mmHg 77%
21:00 +3°C° 0 mm 1 mps 772 mmHg 78%
22:00 +2°C° 0 mm 1 mps 771 mmHg 79%
23:00 +2°C° 0 mm 1 mps 771 mmHg 81%

7 March, Sunday

Time Temperature Precipitation Wind Pressure Humidity
00:00 +2°C° 0 mm 1 mps 771 mmHg 82%
01:00 +2°C° 0 mm 1 mps 771 mmHg 83%
02:00 +2°C° 0 mm 1 mps 770 mmHg 84%
03:00 0°C° 0 mm 0 mps 770 mmHg 85%
04:00 0°C° 0 mm 0 mps 770 mmHg 85%
05:00 0°C° 0 mm 0 mps 770 mmHg 85%
06:00 0°C° 0 mm 0 mps 769 mmHg 85%
07:00 +1°C° 0 mm 0 mps 769 mmHg 81%
08:00 +2°C° 0 mm 0 mps 769 mmHg 76%
09:00 +4°C° 0 mm 0 mps 769 mmHg 71%
10:00 +6°C° 0 mm 1 mps 769 mmHg 68%
11:00 +7°C° 0 mm 1 mps 769 mmHg 64%
12:00 +8°C° 0 mm 1 mps 769 mmHg 61%
13:00 +8°C° 0 mm 1 mps 768 mmHg 61%
14:00 +7°C° 0 mm 2 mps 768 mmHg 61%
15:00 +7°C° 0 mm 2 mps 767 mmHg 61%
16:00 +6°C° 0 mm 2 mps 767 mmHg 69%
17:00 +3°C° 0 mm 3 mps 767 mmHg 77%
18:00 +2°C° 0 mm 3 mps 767 mmHg 85%
19:00 +1°C° 0 mm 3 mps 767 mmHg 86%
20:00 +1°C° 0 mm 3 mps 767 mmHg 87%
21:00 0°C° 0 mm 3 mps 767 mmHg 87%
22:00 +1°C° 0 mm 2 mps 767 mmHg 87%
23:00 +1°C° 0 mm 2 mps 767 mmHg 87%

8 March, Monday

Time Temperature Precipitation Wind Pressure Humidity
00:00 +1°C° 0 mm 2 mps 767 mmHg 87%
01:00 +1°C° 0 mm 2 mps 767 mmHg 87%
02:00 +2°C° 0 mm 1 mps 767 mmHg 87%
03:00 +1°C° 0 mm 1 mps 766 mmHg 87%
04:00 +1°C° 0 mm 1 mps 766 mmHg 86%
05:00 +2°C° 0 mm 1 mps 766 mmHg 85%
06:00 +2°C° 0 mm 1 mps 767 mmHg 85%
07:00 +3°C° 0 mm 1 mps 767 mmHg 80%
08:00 +4°C° 0 mm 1 mps 767 mmHg 76%
09:00 +5°C° 0 mm 1 mps 767 mmHg 71%
10:00 +6°C° 0 mm 1 mps 767 mmHg 68%
11:00 +7°C° 0 mm 1 mps 767 mmHg 66%
12:00 +8°C° 0 mm 1 mps 767 mmHg 63%
13:00 +8°C° 0 mm 1 mps 767 mmHg 64%
14:00 +8°C° 0 mm 1 mps 766 mmHg 65%
15:00 +8°C° 0 mm 1 mps 766 mmHg 66%
16:00 +7°C° 0 mm 1 mps 766 mmHg 71%
17:00 +6°C° 0 mm 1 mps 766 mmHg 76%
18:00 +5°C° 0 mm 1 mps 766 mmHg 81%
19:00 +4°C° 0 mm 1 mps 766 mmHg 83%
20:00 +3°C° 0 mm 1 mps 766 mmHg 85%
21:00 +3°C° 0 mm 1 mps 767 mmHg 87%
22:00 +3°C° 0 mm 1 mps 767 mmHg 87%
23:00 +2°C° 0 mm 1 mps 766 mmHg 88%

9 March, Tuesday

Time Temperature Precipitation Wind Pressure Humidity
00:00 +1°C° 0 mm 2 mps 766 mmHg 88%
01:00 +2°C° 0 mm 2 mps 766 mmHg 89%
02:00 +2°C° 0 mm 2 mps 766 mmHg 90%
03:00 +1°C° 0 mm 3 mps 766 mmHg 90%
04:00 +1°C° 0 mm 3 mps 765 mmHg 90%
05:00 +1°C° 0 mm 3 mps 765 mmHg 90%
06:00 +1°C° 0 mm 3 mps 765 mmHg 90%
07:00 +2°C° 0 mm 3 mps 765 mmHg 88%
08:00 +3°C° 0 mm 4 mps 765 mmHg 85%
09:00 +4°C° 0 mm 4 mps 765 mmHg 83%
10:00 +5°C° 0 mm 4 mps 765 mmHg 83%
11:00 +6°C° 0 mm 4 mps 764 mmHg 83%
12:00 +6°C° 0 mm 4 mps 764 mmHg 82%
13:00 +7°C° 0 mm 5 mps 763 mmHg 83%
14:00 +7°C° 0 mm 6 mps 763 mmHg 83%
15:00 +8°C° 0 mm 7 mps 762 mmHg 83%
16:00 +6°C° 0 mm 7 mps 761 mmHg 84%
17:00 +6°C° 0 mm 7 mps 761 mmHg 85%
18:00 +5°C° 0 mm 7 mps 760 mmHg 85%
19:00 +5°C° 0 mm 8 mps 760 mmHg 86%
20:00 +5°C° 0 mm 8 mps 760 mmHg 86%
21:00 +5°C° 0 mm 9 mps 759 mmHg 86%
22:00 +5°C° 0.4 mm 9 mps 758 mmHg 87%
23:00 +5°C° 0.4 mm 10 mps 757 mmHg 88%
Show more